406P/Gibbs (2020)

Japanese version
Home page
Updated on January 6, 2021

---------------------------------------------------------------------

* Profile

Designation 406P/2020 R8
Recovery Date September 11, 2020
Magnitude
Recoverer Y. JeongAhn (Korea Microlensing Telescope Network-SSO)

* Pictures

* Orbital Elements

Epoch 2020 Sept. 28.0 TT = JDT 2459120.5                                        
T 2020 Sept. 15.69114 TT                                Rudenko                 
q   1.6368242            (2000.0)            P               Q                  
n   0.14592564     Peri.  352.35396     +0.99776308     -0.06671650             
a   3.5731258      Node    11.47400     +0.06239951     +0.90688563             
e   0.5419069      Incl.    1.21356     +0.02398211     +0.41606172             
P   6.75                                                                        
From 210 observations 2007 Sept. 10-2020 Oct. 20, mean residual 0".7.           

* Magnitudes Graph

        m1 = 19.5 + 5 log d + 10.0 log r

        * Gray curve is:  m1 = 17.5 + 5 log d + 10.0 log r

---------------------------------------------------------------------

The orbital elements are published on M.P.E.C. 2020-U269.
The magnitudes graphs are made with Comet for Windows.

---------------------------------------------------------------------

Copyright(C) Seiichi Yoshida (comet@aerith.net). All rights reserved.